Current weather by "City, St" or "zip code"  
 
Advertise Here

Current Conditions: Tinker Air Force Base, OK

Fair


73.0 F

Last Updated on Jul 26 2021, 10:56 pm CDT
Humidity: 84%
Wind Speed: S 3.5 mph
Barometer 29.98 in
Dewpoint: 68.2 F
Visibility: 10.00 mi
Precip: --
Heat Index: NA
Wind Chill: NA
Current conditions at:

Tinker Air Force Base, OK (KTIK)

Lat: 35.41667 Lon: 97.38333

Local Radar Image active severe weather and emergency alerts image image weather storm and storm spotter reports image weather observation monitoring service image
Local
Radar
Active
Alerts
Storm Reports Obs
Monitoring

Sign-up For Email & Text Message Weather Alert Notification Services


Advertise Here

Observation History for Tinker Air Force Base, OK


Time Wind
(mph)
Vis
(mi)
Weather Precip (in) Temperature (F) Relative
Humidity
Wind
Chill
(F)
Heat
Index
(F)
Pressure
Air Dwpt altimeter
(in)
sea level
(mb)
Rmks
10:56 pm CDT S 3.5 10.00 Fair -- 73.0 68.2 84% NA NA 29.98 1014.5
9:56 pm CDT S 3.5 10.00 A Few Clouds -- 75.0 67.3 78% NA NA 29.98 1014.5
8:56 pm CDT NE 10.4 10.00 A Few Clouds -- 77.0 66.0 69% NA NA 29.97 1014.3
7:56 pm CDT NE 11.5 10.00 Fair -- 78.0 65.7 65% NA NA 29.96 1013.9
6:56 pm CDT NE 11.5 10.00 Fair -- 77.0 67.3 72% NA NA 29.94 1013.3
5:56 pm CDT NE 15.0 10.00 Fair -- 78.0 67.8 72% NA NA 29.99 1015.0
4:56 pm CDT N 21.9 G 25.3 10.00 Fair and Breezy -- 82.0 69.3 66% NA 86 29.96 1013.9
3:56 pm CDT W 9.2 10.00 Thunderstorm -- 86.0 66.6 53% NA 89 29.96 1013.8
2:56 pm CDT S 9.2 7.00 A Few Clouds -- 93.0 72.3 52% NA 102 29.96 1013.6
1:56 pm CDT N 0.0 8.00 Fair -- 93.0 71.6 50% NA 101 29.98 1014.3
12:56 pm CDT SE 3.5 10.00 Fair -- 92.0 71.8 52% NA 100 29.98 1014.3
11:56 am CDT SE 5.8 10.00 Fair -- 89.0 73.4 60% NA 97 29.98 1014.3
10:56 am CDT E 4.6 10.00 A Few Clouds -- 86.0 73.6 67% NA 94 29.98 1014.3
9:56 am CDT E 5.8 10.00 Fair -- 82.0 71.6 70% NA 86 29.98 1014.4
8:56 am CDT N 3.5 10.00 Fair -- 77.0 69.1 76% NA NA 29.99 1014.8
7:56 am CDT NW 3.5 10.00 Fair -- 76.0 69.4 80% NA NA 30.00 1015.0
6:56 am CDT N 5.8 10.00 Overcast -- 75.0 69.4 84% NA NA 29.99 1014.6
5:56 am CDT N 5.8 10.00 Mostly Cloudy -- 74.0 69.1 86% NA NA 29.98 1014.3
4:56 am CDT N 4.6 10.00 Partly Cloudy -- 74.0 68.7 84% NA NA 29.96 1013.6
3:56 am CDT N 5.8 10.00 Fair -- 75.0 67.8 79% NA NA 29.95 1013.3
2:56 am CDT NE 6.9 10.00 Fair -- 75.0 64.9 71% NA NA 29.94 1012.9
1:56 am CDT NE 5.8 10.00 Fair -- 76.0 65.1 70% NA NA 29.95 1013.3
12:56 am CDT N 0.0 10.00 Fair -- 76.0 65.5 70% NA NA 29.97 1013.9
11:56 pm CDT W 8.1 10.00 Fair -- 78.0 64.6 64% NA NA 29.98 1014.4

Regional Weather Observation


Oklahoma City, Wiley Post Airport, OK (KPWA)

Fair
74.0 F

Guthrie, Guthrie Municipal Airport, OK (KGOK)

Fog/Mist
71.0 F

Clarence E Page Municipal Airport, OK (KRCE)

A Few Clouds
73.0 F

Oklahoma City, Will Rogers World Airport, OK (KOKC)

Mostly Cloudy
73.0 F

Tinker Air Force Base, OK (KTIK)

Fair
73.0 F

Norman / Max Westheimer, OK (KOUN)

Fair
75.0 F
Advertise Here

Advertise Here